Home   Weather   Osterholz-Scharmbeck   Past weeks

Flag for Germany Past Weather in Osterholz-Scharmbeck, Lower Saxony, Germany — Yesterday and Last 2 Weeks

37 °F


Feels Like: 37 °F
Forecast: 47 / 56 °F
Wind: No wind

Location: Bremen Airport

Current Time: Oct 26, 2016 at 11:18:18 AM

Latest Report: Oct 26, 2016 at 10:50 AM

Visibility: 0 mi

Pressure: 30.39 "Hg

Humidity: 100%

Dew Point: 37 °F

Location of Osterholz-ScharmbeckLocation

Past Weather in Osterholz-Scharmbeck — Graph


Osterholz-Scharmbeck Temperature Yesterday

Maximum temperature yesterday: 50 °F (at 12:50 PM)
Minimum temperature yesterday: 34 °F (at 10:20 PM)
Average temperature yesterday: 44 °F

High & Low Weather Summary for the Past Weeks

High63 °F (Oct 16, 3:50 PM)100% (Oct 15, 4:50 PM)30.39 "Hg (Oct 15, 4:50 PM)
Low32 °F (Oct 26, 3:20 AM)58% (Oct 23, 3:20 PM)29.74 "Hg (Oct 15, 3:50 AM)
Average47 °F90%30.04 "Hg
* Reported Oct 11 10:50 AM — Oct 26 10:20 AM, Osterholz-Scharmbeck, Weather by CustomWeather, © 2016

Note: Actual official high and low records may vary slightly from our data, if they occured in-between our weather recording intervals... More about our weather records


Osterholz-Scharmbeck Weather History for the Previous 24 Hours

Scroll right to see more
Time TempWeatherWind HumidityBarometerVisibility
10:20 AM
Wed, Oct 26
37 °FFog.1 mph93%30.39 "Hg0 mi
9:50 AM36 °FFog.No wind100%30.39 "Hg0 mi
9:20 AM34 °FFog.No wind100%30.39 "Hg0 mi
8:50 AM34 °FFog.3 mph100%30.39 "Hg0 mi
8:20 AM34 °FFog.No wind93%30.39 "Hg0 mi
7:50 AM34 °FFog.No wind93%30.39 "Hg0 mi
7:20 AM34 °FFog.2 mph100%30.39 "Hg0 mi
6:50 AM32 °FFog.2 mph100%30.36 "Hg0 mi
6:20 AM32 °FFog.No wind100%30.36 "Hg0 mi
5:50 AM32 °FFog.No wind100%30.36 "Hg0 mi
5:20 AM32 °FFog.No wind100%30.36 "Hg0 mi
4:50 AM32 °FFog.No wind100%30.36 "Hg0 mi
4:20 AM32 °FFog.No wind100%30.36 "Hg0 mi
3:50 AM32 °FIce fog.No wind93%30.36 "Hg0 mi
3:20 AM32 °FFog.No wind100%30.36 "Hg0 mi
2:50 AM34 °FFog.No wind100%30.36 "Hg1 mi
2:20 AM34 °FFog.No wind100%30.36 "Hg0 mi
1:50 AM34 °FFog.2 mph93%30.36 "Hg0 mi
1:20 AM34 °FFog.No wind93%30.36 "Hg0 mi
12:50 AM34 °FFog.No wind100%30.36 "Hg0 mi
12:20 AM34 °FFog.No wind100%30.36 "Hg0 mi
11:50 PM
Tue, Oct 25
34 °FFog.No wind93%30.36 "Hg0 mi
11:20 PM34 °FFog.No wind100%30.33 "Hg0 mi
10:50 PM34 °FFog.No wind100%30.33 "Hg0 mi
10:20 PM34 °FFog.1 mph100%30.33 "Hg0 mi
9:50 PM36 °FFog.No wind93%30.33 "Hg1 mi
9:20 PM37 °FFog.No wind93%30.33 "Hg1 mi
8:50 PM37 °FFog.2 mph100%30.33 "Hg1 mi
8:20 PM37 °FFog.No wind93%30.30 "Hg0 mi
7:50 PM41 °FQuite cool.No wind100%30.30 "Hg4 mi
7:20 PM43 °FQuite cool.No wind93%30.30 "HgN/A
6:50 PM41 °FQuite cool.No wind100%30.30 "HgN/A
6:20 PM45 °FFog.No wind87%30.27 "HgN/A
5:50 PM48 °FPassing clouds.2 mph82%30.27 "HgN/A
5:20 PM48 °FPassing clouds.5 mph76%30.27 "HgN/A
4:50 PM50 °FPassing clouds.6 mph76%30.27 "HgN/A
4:20 PM50 °FScattered clouds.6 mph76%30.24 "HgN/A
3:50 PM50 °FScattered clouds.7 mph71%30.24 "HgN/A
3:20 PM50 °FScattered clouds.7 mph76%30.24 "HgN/A
2:50 PM50 °FPassing clouds.8 mph71%30.24 "HgN/A
2:20 PM50 °FScattered clouds.7 mph76%30.21 "HgN/A
1:50 PM50 °FScattered clouds.5 mph82%30.21 "HgN/A
1:20 PM50 °FScattered clouds.5 mph76%30.21 "HgN/A
12:50 PM50 °FScattered clouds.7 mph82%30.21 "HgN/A
12:20 PM48 °FScattered clouds.7 mph87%30.21 "Hg5 mi
11:50 AM48 °FScattered clouds.7 mph87%30.21 "Hg4 mi
11:20 AM46 °FFog.5 mph87%30.21 "Hg3 mi
Weather by CustomWeather, © 2016

See weather overviewHow to use our weather pages